Home   Weather   Heide   Past weeks

Flag for Germany Past Weather in Heide, Schleswig-Holstein, Germany — Yesterday and Last 2 Weeks

Now
46 °F

Fog.


Feels Like: 44 °F
Forecast: 62 / 65 °F
Wind: 6 mph from West

Location: Hohn

Current Time: Sep 27, 2016 at 3:57:59 AM

Latest Report: Sep 27, 2016 at 3:20 AM


Visibility: N/A

Pressure: 30.27 "Hg

Humidity: 93%

Dew Point: 45 °F

Location of HeideLocation

Past Weather in Heide — Graph

°F

Heide Temperature Yesterday

Maximum temperature yesterday: 70 °F (at 2:20 PM)
Minimum temperature yesterday: 48 °F (at 11:20 PM)
Average temperature yesterday: 59 °F

High & Low Weather Summary for the Past Weeks

 TemperatureHumidityPressure
High86 °F (Sep 13, 3:20 PM)100% (Sep 12, 2:20 AM)30.24 "Hg (Sep 12, 2:20 AM)
Low45 °F (Sep 24, 3:20 AM)38% (Sep 13, 4:20 PM)29.89 "Hg (Sep 16, 6:20 AM)
Average62 °F80%30.09 "Hg
* Reported Sep 12 2:20 AM — Sep 27 2:20 AM, Heide, Weather by CustomWeather, © 2016

Note: Actual official high and low records may vary slightly from our data, if they occured in-between our weather recording intervals... More about our weather records

Advertising

Heide Weather History for the Previous 24 Hours

Scroll right to see more
 ConditionsComfort  
Time TempWeatherWind HumidityBarometerVisibility
2:20 AM
Tue, Sep 27
48 °FFog.No wind94%30.24 "HgN/A
1:20 AM48 °FFog.No wind94%30.24 "HgN/A
12:20 AM48 °FFog.3 mph94%30.24 "HgN/A
11:20 PM
Mon, Sep 26
48 °FPassing clouds.2 mph94%30.24 "HgN/A
10:20 PM50 °FPassing clouds.3 mph94%30.24 "HgN/A
9:20 PM52 °FPassing clouds.5 mph94%30.24 "HgN/A
8:20 PM57 °FPassing clouds.1 mph82%30.24 "HgN/A
7:20 PM59 °FPassing clouds.3 mph82%30.21 "HgN/A
6:20 PM66 °FScattered clouds.7 mph60%30.21 "HgN/A
5:20 PM68 °FPassing clouds.8 mph53%30.21 "HgN/A
4:20 PM68 °FPassing clouds.8 mph49%30.21 "HgN/A
3:20 PM70 °FPassing clouds.8 mph46%30.21 "HgN/A
2:20 PM70 °FPassing clouds.3 mph46%30.21 "HgN/A
1:20 PM68 °FPassing clouds.2 mph56%30.21 "HgN/A
12:20 PM66 °FPassing clouds.6 mph64%30.21 "HgN/A
11:20 AM64 °FScattered clouds.7 mph73%30.18 "HgN/A
10:20 AM63 °FPassing clouds.2 mph88%30.18 "HgN/A
9:20 AM59 °FScattered clouds.3 mph94%30.18 "HgN/A
8:20 AM55 °FFog.No wind100%30.15 "Hg0 mi
7:20 AM55 °FFog.2 mph100%30.15 "HgN/A
6:20 AM57 °FLight rain. Mostly cloudy.2 mph100%30.15 "HgN/A
5:20 AM57 °FPassing clouds.6 mph100%30.12 "HgN/A
4:20 AM55 °FPartly cloudy.5 mph94%30.12 "HgN/A
3:20 AM57 °FPartly cloudy.7 mph94%30.09 "HgN/A
Weather by CustomWeather, © 2016

See weather overviewHow to use our weather pages